TimePDT,TemperatureF,Dew PointF,Humidity,Sea Level PressureIn,VisibilityMPH,Wind Direction,Wind SpeedMPH,Gust SpeedMPH,PrecipitationIn,Events,Conditions,WindDirDegrees,DateUTC
12:53 AM,64.0,33.1,31,29.68,10.0,West,26.5,35.7,N/A,,Clear,280,2012-05-24 07:53:00
1:53 AM,62.1,37.0,39,29.68,10.0,WNW,25.3,36.8,N/A,,Clear,290,2012-05-24 08:53:00
2:53 AM,60.1,39.0,46,29.68,10.0,WNW,24.2,35.7,N/A,,Clear,300,2012-05-24 09:53:00
3:53 AM,60.1,37.9,44,29.69,10.0,West,17.3,27.6,N/A,,Clear,280,2012-05-24 10:53:00
4:53 AM,60.1,37.0,42,29.69,10.0,WNW,17.3,-,N/A,,Clear,290,2012-05-24 11:53:00
5:53 AM,59.0,37.0,44,29.70,10.0,WNW,19.6,25.3,N/A,,Clear,290,2012-05-24 12:53:00
6:53 AM,61.0,37.0,41,29.71,10.0,West,17.3,-,N/A,,Clear,280,2012-05-24 13:53:00
7:53 AM,64.9,36.0,34,29.71,10.0,WNW,16.1,-,N/A,,Clear,290,2012-05-24 14:53:00
8:53 AM,69.1,34.0,27,29.71,10.0,West,19.6,-,N/A,,Clear,280,2012-05-24 15:53:00
9:53 AM,72.0,33.1,24,29.69,10.0,WNW,16.1,-,N/A,,Clear,290,2012-05-24 16:53:00
10:53 AM,75.9,32.0,20,29.68,10.0,WNW,13.8,-,N/A,,Clear,290,2012-05-24 17:53:00
11:53 AM,79.0,30.0,17,29.66,10.0,NW,11.5,16.1,N/A,,Clear,320,2012-05-24 18:53:00
12:53 PM,81.0,27.0,14,29.62,10.0,WSW,5.8,-,N/A,,Clear,250,2012-05-24 19:53:00
1:53 PM,84.9,25.0,11,29.60,10.0,NW,20.7,26.5,N/A,,Clear,320,2012-05-24 20:53:00
2:53 PM,86.0,35.1,16,29.58,10.0,WNW,23.0,34.5,N/A,,Clear,300,2012-05-24 21:53:00
3:53 PM,84.0,39.9,21,29.57,10.0,West,19.6,26.5,N/A,,Clear,260,2012-05-24 22:53:00
4:53 PM,81.0,45.0,28,29.57,10.0,West,21.9,28.8,N/A,,Clear,270,2012-05-24 23:53:00
5:53 PM,78.1,21.0,12,29.57,10.0,WNW,32.2,36.8,N/A,,Clear,290,2012-05-25 00:53:00
6:49 PM,73.4,48.2,41,29.64,10.0,West,13.8,21.9,N/A,,Clear,260,2012-05-25 01:49:00
6:53 PM,73.0,48.9,42,29.58,10.0,WSW,15.0,19.6,N/A,,Clear,240,2012-05-25 01:53:00
7:53 PM,68.0,48.0,49,29.59,10.0,SW,20.7,-,N/A,,Clear,230,2012-05-25 02:53:00
8:53 PM,66.9,41.0,39,29.59,10.0,WSW,16.1,24.2,N/A,,Clear,250,2012-05-25 03:53:00
9:53 PM,64.0,46.9,54,29.60,10.0,SW,13.8,-,N/A,,Clear,230,2012-05-25 04:53:00
10:53 PM,62.1,48.0,60,29.60,10.0,SW,12.7,-,N/A,,Clear,230,2012-05-25 05:53:00
11:53 PM,60.1,48.9,67,29.60,10.0,SW,15.0,-,N/A,,Clear,230,2012-05-25 06:53:00